KINEIS-1B

Last updated on Fri Sep 11 2026 00:02:53 GMT+0000 (Coordinated Universal Time)

1 60079U 24114A 26253.53732838 .00000527 00000+0 75275-4 0 9994 2 60079 97.9812 277.3136 0002917 149.5247 210.6135 14.80740586120037
UTC large
Height (km)
Speed (km/s)
/
Latitude / Longitude
Inclination (degrees)
Orbital Period (minutes)
Azimuth
Elevation
Range (km)
Doppler Factor

Next 0 passes for location: London (51.5072 / 0.1276)

No passes found over London.
KINEIS-1B